| time (UTC) | temp C | wind direction | speed KPH | gust KPH | rain 1hr cm | rain 24hr cm | rain mn cm | humidity % | barometer mb |
| 20260905031616 | 23 | 0 | 0.0 | 0.0 | 0.00 | 0.99 | 0.99 | 97 | 1011.9 |
| 20260905030110 | 23 | 0 | 0.0 | 0.0 | 0.00 | 0.99 | 0.99 | 97 | 1011.9 |
| 20260905024602 | 23 | 0 | 0.0 | 0.0 | 0.00 | 0.99 | 0.99 | 97 | 1011.8 |
| 20260905023127 | 23 | 0 | 0.0 | 0.0 | 0.00 | 0.99 | 0.99 | 96 | 1011.6 |
| 20260905021602 | 23 | 0 | 0.0 | 0.0 | 0.00 | 0.99 | 0.99 | 96 | 1011.9 |
| 20260905020106 | 24 | 0 | 0.0 | 0.0 | 0.00 | 0.99 | 0.99 | 96 | 1012.1 |
| 20260905014616 | 23 | 0 | 0.0 | 0.0 | 0.00 | 0.99 | 0.99 | 96 | 1012.1 |
| 20260905013057 | 24 | 0 | 0.0 | 0.0 | 0.00 | 0.99 | 0.99 | 96 | 1012.1 |
| 20260905011607 | 24 | 0 | 0.0 | 0.0 | 0.00 | 0.99 | 0.99 | 95 | 1012.1 |
| 20260905010107 | 24 | 0 | 0.0 | 0.0 | 0.00 | 0.99 | 0.99 | 95 | 1012.2 |
| 20260905004601 | 24 | 0 | 0.0 | 0.0 | 0.00 | 0.99 | 0.99 | 94 | 1012.2 |
| 20260905003058 | 24 | 0 | 0.0 | 0.0 | 0.00 | 0.99 | 0.99 | 94 | 1012.0 |
| 20260905001558 | 25 | 0 | 0.0 | 0.0 | 0.00 | 0.99 | 0.99 | 93 | 1012.0 |
| 20260905000119 | 25 | 0 | 0.0 | 0.0 | 0.00 | 0.99 | 0.99 | 92 | 1011.6 |
| 20260904234601 | 25 | 0 | 0.0 | 0.0 | 0.00 | 0.99 | 0.99 | 91 | 1011.3 |
| 20260904233100 | 25 | 0 | 0.0 | 0.0 | 0.00 | 0.99 | 0.99 | 90 | 1011.4 |
| 20260904231600 | 26 | 0 | 0.0 | 0.0 | 0.00 | 0.99 | 0.99 | 88 | 1011.7 |
| 20260904230105 | 27 | 0 | 0.0 | 0.0 | 0.00 | 0.99 | 0.99 | 86 | 1012.0 |
| 20260904224606 | 27 | 0 | 0.0 | 1.6 | 0.00 | 0.99 | 0.99 | 83 | 1012.2 |
| 20260904223058 | 27 | 318 | 0.0 | 4.8 | 0.00 | 0.99 | 0.99 | 82 | 1012.5 |
| 20260904221605 | 28 | 312 | 1.6 | 4.8 | 0.00 | 0.99 | 0.99 | 81 | 1012.8 |
| 20260904220119 | 28 | 0 | 3.2 | 6.4 | 0.00 | 0.99 | 0.99 | 82 | 1012.4 |
| 20260904214600 | 28 | 0 | 0.0 | 0.0 | 0.00 | 0.99 | 0.99 | 82 | 1011.9 |
| 20260904213107 | 29 | 0 | 0.0 | 1.6 | 0.00 | 0.99 | 0.99 | 77 | 1012.0 |
| 20260904211606 | 30 | 8 | 1.6 | 8.0 | 0.00 | 0.99 | 0.99 | 73 | 1011.9 |
| 20260904210117 | 31 | 301 | 3.2 | 8.0 | 0.00 | 0.99 | 0.99 | 70 | 1012.0 |
| 20260904204604 | 31 | 295 | 3.2 | 8.0 | 0.00 | 0.99 | 0.99 | 69 | 1012.0 |
| 20260904203102 | 31 | 345 | 3.2 | 9.7 | 0.00 | 0.99 | 0.99 | 68 | 1011.9 |
| 20260904201602 | 31 | 258 | 0.0 | 6.4 | 0.00 | 0.99 | 0.99 | 73 | 1011.8 |
| 20260904194558 | 31 | 321 | 3.2 | 8.0 | 0.00 | 0.99 | 0.99 | 71 | 1012.0 |
| 20260904193116 | 30 | 20 | 4.8 | 11.3 | 0.00 | 0.99 | 0.99 | 74 | 1012.3 |
| 20260904191604 | 30 | 356 | 3.2 | 9.7 | 0.00 | 0.99 | 0.99 | 73 | 1012.6 |
| 20260904190058 | 30 | 28 | 0.0 | 6.4 | 0.00 | 0.99 | 0.99 | 75 | 1012.5 |
| 20260904184621 | 30 | 223 | 3.2 | 9.7 | 0.00 | 0.99 | 0.99 | 71 | 1012.9 |
| 20260904183102 | 30 | 281 | 6.4 | 11.3 | 0.00 | 0.99 | 0.99 | 72 | 1013.2 |
| 20260904181610 | 29 | 274 | 3.2 | 11.3 | 0.00 | 0.99 | 0.99 | 78 | 1013.2 |
| 20260904180120 | 30 | 0 | 1.6 | 9.7 | 0.00 | 0.99 | 0.99 | 74 | 1013.2 |
| 20260904174613 | 30 | 293 | 3.2 | 9.7 | 0.00 | 0.99 | 0.99 | 78 | 1013.4 |
| 20260904173101 | 29 | 292 | 4.8 | 12.9 | 0.00 | 0.99 | 0.99 | 74 | 1013.5 |
| 20260904171606 | 29 | 326 | 3.2 | 9.7 | 0.00 | 0.99 | 0.99 | 77 | 1013.4 |
| 20260904170105 | 28 | 296 | 4.8 | 9.7 | 0.00 | 0.99 | 0.99 | 74 | 1013.5 |
| 20260904164602 | 28 | 275 | 4.8 | 11.3 | 0.00 | 0.99 | 0.99 | 76 | 1013.6 |
| 20260904163107 | 28 | 286 | 4.8 | 12.9 | 0.00 | 0.99 | 0.99 | 78 | 1013.7 |
| 20260904161603 | 28 | 15 | 4.8 | 11.3 | 0.00 | 0.99 | 0.99 | 76 | 1013.7 |
| 20260904160106 | 28 | 346 | 6.4 | 17.7 | 0.00 | 0.99 | 0.99 | 79 | 1013.9 |
| 20260904154600 | 28 | 297 | 8.0 | 19.3 | 0.00 | 0.99 | 0.99 | 79 | 1014.0 |
| 20260904153105 | 28 | 328 | 6.4 | 14.5 | 0.00 | 0.99 | 0.99 | 78 | 1013.8 |
| 20260904151602 | 28 | 6 | 6.4 | 16.1 | 0.00 | 0.99 | 0.99 | 81 | 1013.8 |
| 20260904150100 | 27 | 1 | 6.4 | 14.5 | 0.00 | 0.99 | 0.99 | 81 | 1013.8 |
| 20260904144600 | 27 | 315 | 4.8 | 14.5 | 0.00 | 0.99 | 0.99 | 83 | 1014.1 |
| 20260904143109 | 27 | 342 | 6.4 | 16.1 | 0.00 | 0.99 | 0.99 | 84 | 1013.9 |
| 20260904141602 | 27 | 290 | 4.8 | 14.5 | 0.00 | 0.99 | 0.99 | 85 | 1013.7 |
| 20260904140104 | 26 | 322 | 4.8 | 14.5 | 0.00 | 0.99 | 0.99 | 88 | 1013.7 |
| 20260904134603 | 26 | 301 | 4.8 | 9.7 | 0.00 | 0.99 | 0.99 | 89 | 1013.7 |
| 20260904133114 | 25 | 312 | 6.4 | 12.9 | 0.00 | 0.99 | 0.99 | 92 | 1013.8 |
| 20260904131604 | 25 | 350 | 4.8 | 12.9 | 0.00 | 0.99 | 0.99 | 93 | 1013.7 |
| 20260904124608 | 23 | 324 | 3.2 | 8.0 | 0.00 | 0.99 | 0.99 | 98 | 1013.7 |
| 20260904123116 | 23 | 11 | 3.2 | 9.7 | 0.00 | 0.99 | 0.99 | 98 | 1013.7 |
| 20260904121603 | 23 | 329 | 3.2 | 8.0 | 0.00 | 0.99 | 0.99 | 98 | 1013.9 |
| 20260904120110 | 22 | 351 | 1.6 | 9.7 | 0.00 | 0.99 | 0.99 | 98 | 1013.8 |
| 20260904114605 | 22 | 318 | 1.6 | 8.0 | 0.00 | 0.99 | 0.99 | 98 | 1013.7 |
| 20260904113103 | 22 | 6 | 4.8 | 9.7 | 0.00 | 0.99 | 0.99 | 99 | 1013.8 |
| 20260904111606 | 22 | 354 | 1.6 | 6.4 | 0.03 | 0.99 | 0.99 | 99 | 1013.8 |
| 20260904110110 | 22 | 315 | 1.6 | 3.2 | 0.03 | 0.99 | 0.99 | 99 | 1013.4 |
| 20260904104604 | 22 | 0 | 0.0 | 4.8 | 0.03 | 0.99 | 0.99 | 99 | 1013.1 |
| 20260904103101 | 22 | 0 | 0.0 | 4.8 | 0.03 | 0.99 | 0.99 | 99 | 1013.0 |
| 20260904101615 | 22 | 0 | 0.0 | 0.0 | 0.00 | 0.97 | 0.97 | 99 | 1012.9 |
| 20260904094604 | 22 | 145 | 1.6 | 4.8 | 0.00 | 0.97 | 0.97 | 100 | 1012.8 |
| 20260904093118 | 22 | 0 | 0.0 | 0.0 | 0.00 | 0.97 | 0.97 | 100 | 1012.4 |
| 20260904091601 | 22 | 0 | 0.0 | 0.0 | 0.03 | 0.97 | 0.97 | 99 | 1012.8 |
| 20260904090059 | 22 | 0 | 0.0 | 0.0 | 0.05 | 0.97 | 0.97 | 99 | 1012.7 |
| 20260904084603 | 22 | 0 | 0.0 | 0.0 | 0.08 | 0.97 | 0.97 | 99 | 1012.7 |
| 20260904083105 | 23 | 0 | 0.0 | 0.0 | 0.13 | 0.97 | 0.97 | 99 | 1012.9 |
| 20260904081601 | 23 | 0 | 0.0 | 3.2 | 0.15 | 0.94 | 0.94 | 100 | 1013.2 |
| 20260904074603 | 23 | 0 | 0.0 | 1.6 | 0.28 | 0.89 | 0.89 | 99 | 1013.9 |
| 20260904073101 | 23 | 0 | 0.0 | 1.6 | 0.53 | 0.84 | 0.84 | 99 | 1013.9 |
| 20260904071601 | 23 | 0 | 0.0 | 4.8 | 0.71 | 0.79 | 0.79 | 99 | 1013.8 |
| 20260904070107 | 23 | 122 | 0.0 | 9.7 | 0.71 | 0.71 | 0.71 | 99 | 1015.2 |
| 20260904064602 | 23 | 313 | 6.4 | 20.9 | 0.61 | 0.61 | 0.61 | 98 | 1016.2 |
| 20260904063101 | 23 | 330 | 8.0 | 19.3 | 0.30 | 0.30 | 0.30 | 98 | 1015.8 |
| 20260904061600 | 23 | 333 | 12.9 | 29.0 | 0.08 | 0.08 | 0.08 | 97 | 1015.3 |
| 20260904060057 | 25 | 295 | 8.0 | 22.5 | 0.00 | 0.00 | 0.00 | 96 | 1014.4 |
| 20260904054604 | 25 | 359 | 0.0 | 3.2 | 0.00 | 0.00 | 0.00 | 100 | 1014.1 |
| 20260904053102 | 25 | 0 | 0.0 | 0.0 | 0.00 | 0.00 | 0.00 | 100 | 1012.8 |
| 20260904051604 | 25 | 0 | 0.0 | 0.0 | 0.00 | 0.00 | 0.00 | 100 | 1013.4 |
| 20260904050104 | 25 | 0 | 0.0 | 0.0 | 0.00 | 0.00 | 0.00 | 100 | 1013.2 |
| 20260904044610 | 25 | 0 | 0.0 | 0.0 | 0.00 | 0.00 | 0.00 | 100 | 1013.4 |
| 20260904043059 | 25 | 0 | 0.0 | 0.0 | 0.00 | 0.00 | 0.00 | 100 | 1013.4 |
| 20260904041604 | 25 | 0 | 0.0 | 0.0 | 0.00 | 0.00 | 0.00 | 100 | 1013.3 |
| 20260904040104 | 25 | 0 | 0.0 | 0.0 | 0.00 | 0.00 | 0.00 | 100 | 1013.7 |
| 20260904034601 | 25 | 0 | 0.0 | 0.0 | 0.00 | 0.00 | 0.00 | 100 | 1014.0 |
| 20260904033059 | 25 | 0 | 0.0 | 0.0 | 0.00 | 0.00 | 0.00 | 99 | 1014.1 |